This is the latest recevied weather packets stored in our database for station/object KR8N. If no packets are shown the sender has not sent any weather packets the latest 10 day(s).
| Time | Temp. | Humidity | Pressure | Rain* | Wind** | Luminosity | Snow |
|---|---|---|---|---|---|---|---|
| 1778028753 | 19.44° C | 41% | 1013.7 hPa | 0 mm | - | 0 W/m² | - |
| 1778028449 | 18.89° C | 42% | 1013.9 hPa | 0 mm | - | 0 W/m² | - |
| 1778028147 | 18.89° C | 44% | 1013.8 hPa | 0 mm | - | 0 W/m² | - |
| 1778027843 | 19.44° C | 41% | 1014.1 hPa | 0 mm | - | 0 W/m² | - |
| 1778027540 | 18.89° C | 41% | 1014 hPa | 0 mm | - | 0 W/m² | - |
| 1778027235 | 18.89° C | 40% | 1014.1 hPa | 0 mm | - | 0 W/m² | - |
| 1778026932 | 19.44° C | 42% | 1014.2 hPa | 0 mm | - | 0 W/m² | - |
| 1778026628 | 19.44° C | 39% | 1014.1 hPa | 0 mm | - | 1 W/m² | - |
| 1778026325 | 20° C | 41% | 1013.9 hPa | 0 mm | - | 1 W/m² | - |
| 1778026022 | 20° C | 37% | 1013.9 hPa | 0 mm | - | 2 W/m² | - |
| 1778025720 | 20° C | 39% | 1014.2 hPa | 0 mm | - | 2 W/m² | - |
| 1778025417 | 20° C | 38% | 1013.8 hPa | 0 mm | - | 3 W/m² | - |
| 1778025115 | 20° C | 37% | 1014 hPa | 0 mm | - | 5 W/m² | - |
| 1778024811 | 20.56° C | 38% | 1013.9 hPa | 0 mm | - | 8 W/m² | - |
| 1778024509 | 20.56° C | 37% | 1013.8 hPa | 0 mm | - | 12 W/m² | - |
| 1778024205 | 20.56° C | 36% | 1013.9 hPa | 0 mm | - | 19 W/m² | - |
| 1778023903 | 20.56° C | 33% | 1013.9 hPa | 0 mm | - | 33 W/m² | - |
| 1778023600 | 20.56° C | 36% | 1013.8 hPa | 0 mm | - | 39 W/m² | - |
| 1778023298 | 21.11° C | 35% | 1013.6 hPa | 0 mm | - | 45 W/m² | - |
| 1778022994 | 21.11° C | 35% | 1014 hPa | 0 mm | - | 38 W/m² | - |
| 1778022693 | 21.11° C | 35% | 1013.9 hPa | 0 mm | - | 38 W/m² | - |
| 1778022391 | 21.11° C | 37% | 1013.8 hPa | 0 mm | - | 47 W/m² | - |
| 1778022087 | 21.11° C | 34% | 1013.9 hPa | 0 mm | - | 51 W/m² | - |
| 1778021783 | 21.67° C | 34% | 1013.9 hPa | 0 mm | - | 57 W/m² | - |
| 1778021480 | 21.67° C | 33% | 1014.1 hPa | 0 mm | - | 62 W/m² | - |
* Rain latest hour (hover to see other rain measurements)
** Current wind speed in m/s (hover to see current wind gust speed)